Location: Aufkirchen
(47.9603°N, 11.3653°E)
Time: 22:00:29
(UTC+02:00)

Altair - Pass Details

Date: 05 August 2021
Orbit: 1501 x 1682 km, 47.2° (Epoch: 22 September)

Event Time Altitude Azimuth Distance (km) Brightness Sun altitude
Exits shadow 00:25:23 25° 121° (ESE) 2,749 8.4 -23.9°
Drops below altitude 10° 00:31:17 10° 82° (E) 3,698 9.4 -24.1°
Sets 00:34:56 0° 71° (ENE) 4,665 10.1 -24.3°
